Wind_Speed
47 42 42 35 32 33 35 42 27 7 10 23 17 36 33 30 28 27 25 23 19 18 21 18 19 18 18 16 13 11 11 10 8 6 6 5 5 4
46 47 44 41 37 32 36 39 32 24 7 31 38 24 38 34 32 31 29 26 23 22 24 25 21 20 19 18 16 12 12 11 9 8 7 6 5 3
44 44 50 46 42 39 37 37 40 27 14 18 38 36 32 38 35 33 31 29 27 26 24 26 25 23 21 20 18 15 13 12 11 10 9 7 5 4
43 44 46 43 44 43 43 42 42 45 32 16 25 32 31 37 38 35 34 32 30 29 27 27 27 28 24 21 19 18 16 15 13 12 11 9 8 6
43 43 44 41 40 38 44 43 45 43 41 29 23 28 36 34 37 36 35 32 32 31 29 28 27 26 25 23 22 21 19 18 16 14 13 12 9 7
45 46 47 43 44 43 44 45 42 40 40 33 22 25 32 31 37 38 35 35 34 32 32 30 27 26 27 23 22 22 21 18 16 14 12 12 11 11
46 46 51 52 49 49 45 42 39 38 33 32 22 18 23 23 37 36 31 35 37 36 34 31 30 29 25 23 24 24 21 19 17 15 13 12 11 10
43 45 48 51 55 58 55 50 54 45 37 33 30 25 30 31 33 33 28 19 11 38 38 34 35 33 30 29 27 26 21 19 18 17 14 14 11 9
44 42 42 42 51 52 56 58 57 58 53 49 38 35 29 39 36 31 32 33 29 27 39 28 38 36 34 30 28 25 21 20 18 17 15 15 12 11
44 47 43 44 47 50 44 42 48 52 53 49 42 46 50 44 49 51 43 30 21 21 33 18 35 30 35 32 29 26 23 20 19 16 16 16 13 11
39 41 42 45 49 55 44 44 41 44 49 47 39 49 50 50 47 38 32 30 14 20 37 23 23 25 29 34 32 27 23 21 19 16 19 17 13 11
38 39 44 44 44 46 47 42 40 46 46 47 49 49 47 46 47 47 45 36 24 12 35 29 25 24 9 31 33 29 25 23 21 18 19 18 15 18
30 31 41 44 46 44 47 44 48 49 45 44 40 40 40 40 43 44 44 43 36 19 31 39 26 27 13 8 30 35 31 28 26 21 19 22 21 21
29 33 35 38 42 47 47 52 48 39 36 36 34 34 36 38 43 47 44 42 36 29 29 44 20 29 25 11 9 27 31 31 30 26 23 24 22 20
31 34 35 36 41 43 44 48 45 30 32 28 30 32 39 38 34 34 36 39 34 32 26 40 36 33 30 20 15 20 27 27 28 27 25 24 22 20
30 33 35 35 36 33 33 38 36 39 38 35 34 31 30 32 36 36 30 33 29 25 26 33 36 29 28 25 27 24 23 15 28 24 21 19 17 15
26 28 27 25 26 27 29 30 33 36 34 33 30 32 35 36 35 42 34 33 26 30 29 28 29 23 25 29 19 26 26 19 17 20 19 17 15 14
26 21 21 22 22 22 24 27 32 33 36 31 31 33 34 32 29 30 33 34 27 26 29 32 32 25 19 14 15 22 21 20 18 18 17 15 13 11
22 19 19 19 20 23 26 27 29 33 30 31 32 31 31 30 32 30 32 28 26 27 28 34 32 26 10 3 11 17 19 18 17 17 15 14 11 8
21 20 17 18 20 22 24 25 24 24 27 28 28 28 27 30 28 28 29 29 29 27 26 29 30 28 21 12 9 14 20 17 18 15 14 11 10 11
18 20 21 20 21 21 22 22 25 27 28 27 28 30 32 32 29 30 30 31 32 29 27 25 30 28 20 18 12 10 14 14 12 12 12 10 8 8
20 21 23 21 22 23 23 25 25 25 27 29 29 30 31 32 31 32 33 32 29 28 25 27 29 25 22 18 14 12 14 14 12 10 10 10 8 6
21 20 22 22 22 23 24 25 24 23 26 26 27 28 30 27 27 29 31 30 31 30 31 28 30 26 23 19 17 16 12 13 13 11 12 12 13 13
Wind_Direction
218 223 219 219 217 212 205 191 179 172 213 211 194 206 203 204 204 211 214 217 221 215 216 209 195 211 211 205 184 181 182 184 178 170 162 146 141 135
219 222 224 223 222 216 213 206 195 188 202 210 213 208 210 209 206 211 214 217 217 211 217 224 224 226 207 207 206 202 190 189 186 186 183 177 166 164
220 222 226 226 226 222 217 216 209 204 193 200 221 217 212 212 211 210 213 216 216 215 220 221 223 227 224 219 220 210 203 198 193 193 195 199 200 207
218 219 225 223 225 227 223 220 220 222 225 204 211 213 213 214 215 213 212 216 219 218 220 222 223 229 230 221 217 214 209 205 199 201 209 207 218 225
218 219 221 219 220 220 225 223 224 226 223 220 205 207 210 212 210 214 214 213 215 219 223 222 222 222 223 222 220 218 218 218 223 224 226 224 220 215
222 220 224 220 220 219 222 222 223 223 222 218 203 200 206 209 209 207 208 211 209 210 213 216 217 222 223 215 216 221 223 224 226 225 225 229 228 234
224 222 227 228 224 224 220 219 217 217 213 209 202 194 193 193 198 203 204 208 210 207 206 209 212 211 204 203 211 215 223 221 222 225 223 216 222 234
220 223 224 228 229 234 230 226 228 216 210 208 208 206 205 204 199 198 185 179 202 209 206 204 211 211 217 212 212 214 217 219 221 222 222 209 213 227
223 221 221 225 226 225 229 234 230 233 227 221 211 211 204 211 213 197 198 198 209 204 199 199 206 213 219 215 215 218 219 220 222 221 216 212 212 223
225 226 226 225 229 224 218 218 221 224 223 220 227 236 236 232 223 224 210 198 206 206 191 198 206 208 216 217 218 218 219 219 222 222 213 214 214 223
236 234 229 226 231 231 216 213 213 218 226 233 234 240 239 236 234 206 184 179 187 194 195 200 196 198 213 217 217 217 216 216 216 221 210 212 218 231
249 245 236 232 232 231 224 217 214 216 219 223 226 230 224 227 226 221 201 190 188 184 198 192 182 180 192 217 216 214 214 214 214 216 214 215 223 232
256 246 245 241 239 234 234 225 224 230 219 216 213 212 212 210 206 210 214 205 192 201 201 188 181 180 178 167 205 210 211 210 212 213 217 217 213 228
262 256 246 247 244 239 233 235 233 229 211 201 198 197 195 199 203 208 212 210 209 212 198 191 190 186 184 160 167 199 205 209 214 218 218 218 226 239
254 261 258 251 253 252 247 243 235 223 204 195 199 202 202 203 197 190 196 198 204 210 201 199 204 195 189 187 166 179 182 201 211 217 219 227 234 240
275 261 261 251 243 244 240 236 223 215 201 204 206 203 197 190 183 186 186 187 184 183 195 202 205 202 181 190 181 165 182 179 203 207 216 223 234 234
286 269 241 224 223 223 223 223 216 210 204 205 199 189 186 187 185 186 181 176 180 165 160 181 191 192 198 188 171 184 180 185 181 197 203 209 226 245
287 239 233 216 217 221 223 216 207 208 205 201 200 190 184 181 176 176 173 173 166 168 155 167 168 156 149 169 187 179 189 191 194 204 212 223 237 232
270 243 240 228 223 224 224 215 211 203 200 195 194 189 176 172 174 172 168 163 159 159 156 162 160 157 150 140 175 196 192 195 194 200 212 214 232 231
264 247 244 237 230 224 221 215 211 192 189 186 181 175 169 164 165 170 168 159 155 152 153 162 166 167 165 162 157 192 205 196 187 191 197 210 233 254
255 247 248 245 238 227 214 206 196 181 178 174 171 168 169 167 166 169 164 160 158 159 160 165 175 183 175 157 141 150 182 189 197 193 196 208 225 255
256 259 256 252 245 227 206 195 188 177 173 176 178 176 175 174 173 169 164 164 162 159 156 155 164 172 172 173 163 166 179 190 203 217 235 233 213 204
259 258 256 247 238 218 200 190 187 183 181 180 177 173 166 163 164 163 157 153 150 146 147 146 164 173 182 187 186 189 175 169 183 206 222 224 238 255
Height
824 829 834 837 840 842 842 843 847 863 865 864 865 869 874 878 881 885 888 891 893 896 898 899 899 901 903 905 906 908 909 909 910 911 911 911 911 911
817 822 827 831 835 837 839 841 842 844 853 854 856 860 867 872 875 879 882 885 888 890 892 895 897 899 900 902 904 905 906 907 908 909 910 910 909 910
809 814 817 824 828 831 834 836 839 841 842 847 852 856 860 864 869 872 876 878 881 883 886 889 892 895 897 898 900 901 902 904 905 906 907 908 908 908
799 804 808 814 818 822 825 828 831 834 838 840 844 849 853 857 861 866 869 871 874 877 879 882 884 888 890 892 894 896 897 899 900 901 901 903 904 904
790 793 797 804 808 812 815 819 823 826 830 833 835 840 844 848 854 859 862 865 868 871 874 876 878 880 883 886 888 889 891 892 895 897 898 899 900 900
778 782 787 791 795 800 803 807 813 818 821 826 829 831 835 840 846 849 854 857 859 863 866 869 872 874 877 880 883 884 885 888 891 893 894 895 895 897
766 769 773 778 783 787 792 796 801 807 811 816 819 822 825 831 832 834 842 849 852 854 858 861 865 867 869 874 876 879 880 883 886 889 890 892 891 893
752 758 761 765 769 774 778 784 787 793 798 803 807 808 810 814 820 826 832 839 847 845 847 853 855 858 862 865 870 873 875 877 880 882 885 887 888 889
742 745 748 752 756 760 765 770 772 777 781 786 790 793 799 801 811 816 819 820 827 829 836 841 847 851 854 859 864 868 870 872 875 877 880 882 883 885
730 734 736 740 742 745 750 754 759 764 768 773 779 785 786 788 794 797 804 815 822 826 830 835 838 843 848 852 856 860 864 866 870 872 875 877 879 881
724 726 728 730 732 736 737 742 748 749 756 757 759 771 773 776 783 793 800 808 812 814 820 824 828 835 841 845 849 854 857 861 864 867 870 871 874 876
720 719 722 720 722 727 727 733 738 732 743 745 752 755 762 764 770 775 780 789 797 805 806 816 819 825 834 835 841 846 850 855 859 861 864 866 869 870
715 710 712 712 714 716 717 724 722 724 727 732 739 744 750 756 760 766 769 774 780 784 787 799 805 813 819 824 829 835 841 847 851 854 857 860 862 863
704 707 702 701 703 707 709 712 717 721 720 723 728 733 737 743 748 753 755 763 771 773 778 786 793 801 806 816 820 826 832 839 843 848 850 853 856 857
695 697 697 692 695 698 699 702 707 710 712 718 719 721 721 730 740 744 749 755 764 769 774 778 784 791 798 803 810 816 824 831 837 840 844 847 849 850
690 684 687 687 688 685 690 695 697 698 699 706 709 713 720 723 728 734 743 751 759 764 769 774 779 784 789 797 804 810 817 824 829 834 838 841 844 845
683 680 678 676 679 680 680 682 686 687 690 694 700 702 706 716 718 722 731 742 748 752 758 767 777 783 787 793 801 806 812 817 823 828 832 835 837 839
675 674 670 667 668 671 672 673 673 679 679 682 690 692 696 703 710 718 722 728 737 750 749 760 767 779 788 796 800 802 809 814 818 823 827 830 832 834
667 667 665 661 660 663 666 667 668 664 669 674 680 688 686 690 705 710 715 721 732 743 747 755 764 772 782 790 796 799 803 810 815 820 823 825 828 831
662 661 660 658 658 657 659 660 661 659 664 668 675 679 682 686 695 704 712 715 726 736 746 753 759 766 773 781 791 796 800 804 809 814 818 822 824 826
658 657 655 655 654 651 651 653 656 654 659 665 669 672 677 682 689 700 706 712 722 729 740 747 755 767 772 779 787 793 798 802 806 810 814 818 820 821
653 652 652 650 649 646 645 647 654 652 654 659 665 668 673 677 686 692 696 708 716 725 735 742 750 764 775 774 780 789 794 799 804 807 809 812 814 816
648 648 647 645 643 642 641 644 648 649 652 655 661 665 667 674 683 690 695 704 713 720 731 740 750 759 769 774 777 784 791 797 801 803 806 807 809 810